Regional Weather Roundup
Issued by NWS Little Rock, AR

Home | Current Version | Previous Version | Text Only | Print | Product List | Glossary On
Versions: 1 2 3 4 5 6 7 8 9 10 11 12 13 14 15 16 17 18 19 20 21 22 23 24 25 26 27 28 29 30 31 32 33 34 35 36 37 38 39 40 41 42 43 44 45 46 47 48 49 50
196
ASUS44 KLZK 291705
RWRLZK

WEATHER ROUNDUP FOR ARKANSAS
NATIONAL WEATHER SERVICE LITTLE ROCK AR
1200 PM CDT THU JUN 29 2017

NOTE: "FAIR" INDICATES FEW OR NO CLOUDS BELOW 12,000 FEET WITH NO
SIGNIFICANT WEATHER AND/OR OBSTRUCTIONS TO VISIBILITY.

ARZ001-003-010-029-291800-
NORTHWEST ARKANSAS

CITY           SKY/WX    TMP DP  RH WIND       PRES   REMARKS
FAYETTEVILLE   CLOUDY    79  69  71 S10       29.95S
FORT SMITH     PTSUNNY   85  72  65 SE5       29.90S HX  91
HARRISON       PTSUNNY   81  68  64 SE13      29.97R
BENTONVILLE    CLOUDY    81  66  61 S7        29.96S
ROGERS         PTSUNNY   82  68  62 S13       29.95S HX  85
SILOAM SPGS    PTSUNNY   82  68  61 S15       29.94S HX  85
HIGHFILL       CLOUDY    81  69  67 S13       29.95R
SPRINGDALE     PTSUNNY   81  68  65 S14       29.96S
$$

ARZ004-005-016-291800-
NORTH CENTRAL ARKANSAS

CITY           SKY/WX    TMP DP  RH WIND       PRES   REMARKS
BATESVILLE     CLOUDY    79  70  73 S7        29.99S
FLIPPIN        PTSUNNY   82  64  54 SE7       29.93S
MTN HOME       MOSUNNY   81  68  64 S8G18     29.96S
$$

ARZ040-041-291800-
WEST CENTRAL ARKANSAS

CITY           SKY/WX    TMP DP  RH WIND       PRES   REMARKS
MENA           CLOUDY    79  77  94 S5        29.96S
MOUNT IDA      CLOUDY    79  68  69 VRB3      29.94S
$$

ARZ009-017-025-026-028-291800-
NORTHEAST ARKANSAS

CITY           SKY/WX    TMP DP  RH WIND       PRES   REMARKS
JONESBORO      MOSUNNY   83  72  69 S13       29.98F HX  88
WALNUT RIDGE   PTSUNNY   82  70  65 S13       29.98F HX  86
BLYTHEVILLE    PTSUNNY   81  72  74 SW8       30.01S HX  85
$$

ARZ022-023-033-042-044-291800-
CENTRAL ARKANSAS

CITY           SKY/WX    TMP DP  RH WIND       PRES   REMARKS
LITTLE ROCK    CLOUDY    80  72  76 S8        29.97F
JACKSONVILLE   PTSUNNY   79  72  78 S5        29.97F
CONWAY           N/A     79  72  78 VRB5      29.96S
SEARCY         CLOUDY    82  74  76 S8        30.00S HX  88
HOT SPRINGS    CLOUDY    80  72  76 SE8       29.96F
RUSSELLVILLE   CLOUDY    79  70  74 S7        29.95S
CLINTON        CLOUDY    79  72  78 S7        29.97F
$$

ARZ036-291800-
EAST ARKANSAS

CITY           SKY/WX    TMP DP  RH WIND       PRES   REMARKS
WEST MEMPHIS   PTSUNNY   84  73  69 S14       29.99S HX  90
$$

ARZ050-053-066-070-073-291800-
SOUTHWEST ARKANSAS

CITY           SKY/WX    TMP DP  RH WIND       PRES   REMARKS
ARKADELPHIA    CLOUDY    81  73  76 MISG      29.96S HX  86
CAMDEN         CLOUDY    82  68  61 S7        29.95F HX  85
TEXARKANA      PTSUNNY   82  71  69 S10       29.93F HX  86
EL DORADO      CLOUDY    81  72  74 S9        29.96S HX  85
DE QUEEN       CLOUDY    80  72  76 S6        29.91S
$$

ARZ056-057-069-291800-
SOUTHEAST ARKANSAS

CITY           SKY/WX    TMP DP  RH WIND       PRES   REMARKS
PINE BLUFF     CLOUDY    84  72  67 S12       29.97S HX  89
STUTTGART      CLOUDY    81  63  54 S8        29.99F
MONTICELLO     CLOUDY    83  72  69 S6        29.97F HX  88

$$






USA.gov is the U.S. government's official web portal to all federal, state and local government web resources and services.